Tracking 28091 objects as of 30-Sep-2023
HD Live streaming from Space Station
objects crossing your sky now

STARLINK-6060

Track STARLINK-6060 now!
10-day predictions
STARLINK-6060 is classified as:


NORAD ID: 56794
Int'l Code: 2023-078AD
Perigee: 364.1 km
Apogee: 368.5 km
Inclination: 70.0 °
Period: 91.7 minutes
Semi major axis: 6737 km
RCS: Unknown
Launch date: May 31, 2023
Source: United States (US)
Launch site: AIR FORCE WESTERN TEST RANGE (AFWTR)
Your satellite tracking list
Your tracking list is empty




NASA's NSSDC Master Catalog

Two Line Element Set (TLE):
1 56794U 23078AD  23273.44779265  .00000258  00000-0  39180-5 0  9993
2 56794  69.9974  69.7967 0003264 274.4316  85.6506 15.69915083 19482
Source of the keplerian elements: AFSPC